[[{"header":{"parameterUnit":"m.s-1","parameterCategory":1,"la1":30.2992,"la2":30.254,"lo1":-89.0895,"lo2":-89.0443,"dy":0.0025,"dx":0.0025,"nx":19,"ny":19,"refTime":"2026-04-10T03:00:00:Z","depth":0,"parameterNumber":2,"parameterNumberName":"U-component_of_WINDS"},"data":[0,0,0,-5.3258,-5.326,-5.3317,-5.3317,-5.3412,-5.3413,0,0,0,0,0,0,0,0,0,0,0,-5.3254,-5.3255,-5.3258,-5.326,-5.3317,-5.3317,-5.3412,-5.3413,0,0,0,0,0,0,0,0,0,0,0,-5.3253,-5.3255,-5.3256,-5.326,-5.3317,-5.3317,-5.3411,-5.336,0,0,0,0,0,0,0,0,0,0,-5.3301,-5.331,-5.3254,-5.3256,-5.326,-5.3317,-5.3317,-5.3358,-5.3364,-5.3395,0,-5.3426,0,-5.3422,-5.3421,-5.3421,0,0,0,-5.325,-5.3305,-5.3309,-5.3256,-5.3261,-5.3317,-5.3288,-5.3361,-5.3368,-5.3403,-5.3428,-5.3431,-5.3423,-5.3421,-5.3422,-5.3637,-5.3638,0,0,-5.3247,-5.3271,-5.3304,-5.3314,-5.3307,-5.3287,-5.329,-5.3365,-5.3393,-5.3428,-5.3432,-5.3425,-5.3422,-5.3423,-5.3636,-5.3637,0,0,0,-5.3244,-5.3269,-5.3271,-5.3311,-5.332,-5.3289,-5.3293,-5.3389,-5.3388,-5.3433,-5.3426,-5.3423,-5.3424,-5.3634,-5.3636,-5.3731,0,0,0,-5.3242,-5.3268,-5.327,-5.3285,-5.3319,-5.3355,-5.3316,-5.3383,-5.339,-5.3425,-5.3423,-5.3425,-5.3632,-5.3635,-5.3725,-5.3771,0,0,0,-5.3246,-5.3268,-5.3281,-5.3286,-5.3312,-5.3353,-5.3356,-5.3384,-5.3386,-5.3421,-5.3426,-5.3631,-5.3635,-5.3719,-5.3761,-5.3833,0,0,0,-5.3256,-5.3364,-5.3283,-5.34,-5.3312,-5.3413,-5.3355,-5.3429,-5.347,-5.3423,-5.3633,-5.3636,-5.3718,-5.3756,-5.3828,-5.3896,-5.3928,0,0,-5.3405,-5.3382,-5.345,-5.3379,-5.35,-5.3402,-5.3537,-5.3552,-5.3533,-5.3603,-5.3608,-5.3727,-5.3761,-5.3832,-5.41,-5.4126,0,0,0,-5.3505,-5.3553,-5.358,-5.3621,-5.3636,-5.3653,-5.3645,-5.3651,-5.3709,-5.3574,-5.3773,-5.3792,-5.3833,-5.3864,-5.3886,-5.3919,-5.3652,-5.3652,-5.3652,-5.3747,-5.3719,-5.3828,-5.3807,-5.3849,-5.3841,-5.3871,-5.3877,-5.3836,-5.3884,-5.3903,-5.407,-5.4108,-5.4123,-5.4158,-5.394,-5.394,-5.394,-5.3941,-5.396,-5.4023,-5.3969,-5.4054,-5.4025,-5.4097,-5.4095,-5.4064,-5.4126,-5.4052,-5.4087,-5.4006,-5.4152,-5.4181,-5.3948,-5.3946,-5.3945,-5.3945,-5.3944,-5.4112,-5.4137,-5.4145,-5.4202,-5.4251,-5.4227,-5.429,-5.4261,-5.4234,-5.4269,-5.4286,-5.4284,-5.4277,-5.428,-5.428,-5.4281,-5.4282,-5.4282,-5.4282,-5.4266,-5.4271,-5.4328,-5.4356,-5.4379,-5.4407,-5.4403,-5.4425,-5.4443,-5.4416,-5.4416,-5.437,-5.4173,-5.4122,-5.4291,-5.4289,-5.4288,-5.4287,-5.4287,-5.4487,-5.4433,-5.4521,-5.4545,-5.4576,-5.4626,-5.459,-5.4639,-5.4653,-5.4685,-5.4634,-5.4494,-5.4467,-5.445,-5.4408,-5.464,-5.464,-5.464,-5.464,-5.4613,-5.4599,-5.4682,-5.4723,-5.4759,-5.4737,-5.4837,-5.4837,-5.4828,-5.4835,-5.4799,-5.4742,-5.4725,-5.4709,-5.4686,-5.4646,-5.4933,-5.4934,-5.4934,-5.4746,-5.4735,-5.4825,-5.4816,-5.484,-5.486,-5.4954,-5.5002,-5.4981,-5.4945,-5.484,-5.4828,-5.4735,-5.4707,-5.4664,-5.4629,-5.4555,0,0]},{"header":{"parameterUnit":"m.s-1","parameterCategory":1,"la1":30.2992,"la2":30.254,"lo1":-89.0895,"lo2":-89.0443,"dy":0.0025,"dx":0.0025,"nx":19,"ny":19,"refTime":"2026-04-10T03:00:00:Z","depth":0,"parameterNumber":3,"parameterNumberName":"V-component_of_WINDS"},"data":[0,0,0,2.5887,2.5888,2.5918,2.5918,2.5929,2.5929,0,0,0,0,0,0,0,0,0,0,0,2.5863,2.5863,2.5887,2.5888,2.5918,2.5918,2.5929,2.5929,0,0,0,0,0,0,0,0,0,0,0,2.5864,2.5863,2.5863,2.5888,2.5918,2.5918,2.5929,2.5916,0,0,0,0,0,0,0,0,0,0,2.5891,2.5855,2.5863,2.5863,2.5888,2.5918,2.5918,2.5915,2.5916,2.5904,0,2.5891,0,2.5911,2.5928,2.5928,0,0,0,2.5898,2.5854,2.5876,2.5863,2.5888,2.5918,2.5907,2.5916,2.5917,2.5905,2.5892,2.5893,2.5911,2.5928,2.5928,2.583,2.5829,0,0,2.5896,2.586,2.5875,2.5876,2.5872,2.5906,2.5908,2.5917,2.5899,2.5892,2.5894,2.5911,2.5928,2.5928,2.5831,2.583,0,0,0,2.5884,2.5858,2.5881,2.5875,2.5882,2.5907,2.5909,2.5899,2.5909,2.5894,2.5911,2.5928,2.5928,2.5832,2.5831,2.5751,0,0,0,2.5884,2.5852,2.588,2.5858,2.5882,2.5891,2.5889,2.5909,2.5911,2.5911,2.5928,2.5928,2.5833,2.5831,2.5755,2.5718,0,0,0,2.5866,2.585,2.585,2.5856,2.5868,2.5892,2.5904,2.591,2.5921,2.5928,2.5928,2.5834,2.5832,2.5759,2.5724,2.5682,0,0,0,2.5837,2.5776,2.5848,2.5787,2.5868,2.5843,2.5904,2.5887,2.5884,2.5928,2.5833,2.5831,2.576,2.5729,2.5686,2.5639,2.5616,0,0,2.574,2.5763,2.573,2.5796,2.575,2.5842,2.5784,2.5813,2.5845,2.5833,2.5831,2.5754,2.5725,2.5683,2.5504,2.5486,0,0,0,2.5687,2.5663,2.5659,2.5656,2.568,2.5696,2.5739,2.5751,2.5743,2.5832,2.5728,2.5712,2.5689,2.5668,2.5652,2.5634,2.582,2.582,2.5821,2.5497,2.5545,2.5493,2.5545,2.5541,2.5588,2.5589,2.5612,2.5658,2.5633,2.5628,2.5515,2.5489,2.5478,2.5458,2.5609,2.5608,2.5608,2.5608,2.5359,2.5332,2.5399,2.5373,2.5423,2.5401,2.5444,2.5478,2.5464,2.5521,2.5503,2.556,2.5456,2.5442,2.5602,2.5603,2.5604,2.5604,2.5605,2.5239,2.5234,2.5252,2.5254,2.525,2.5304,2.5288,2.5334,2.5376,2.5358,2.5359,2.536,2.5367,2.5356,2.5355,2.5355,2.5355,2.5354,2.5354,2.5107,2.5129,2.5111,2.5133,2.5139,2.5151,2.5199,2.5204,2.5222,2.5256,2.5256,2.5304,2.5438,2.547,2.5348,2.5349,2.535,2.5351,2.5351,2.4947,2.4991,2.4964,2.4969,2.4999,2.4992,2.5053,2.506,2.5071,2.5062,2.5116,2.5208,2.5233,2.5246,2.5272,2.5106,2.5106,2.5106,2.5106,2.4844,2.4864,2.4847,2.4853,2.4864,2.4916,2.4882,2.4919,2.4963,2.4973,2.5004,2.5044,2.5055,2.5074,2.509,2.5116,2.4914,2.4913,2.4913,2.4749,2.4772,2.4734,2.4782,2.4809,2.4831,2.4801,2.4803,2.4863,2.4906,2.4981,2.4989,2.5054,2.5073,2.5116,2.514,2.5188,0,0]}]]